This demonstration page uses our WeatherBlox Daily Observations layout. Learn more.

Left ArrowRight Arrow

Hourly Observations for April 20, 2020

Temp ( °F °C ) Dew Point ( °F °C ) Humidity (%) Winds ( mph kmh ) Pressure ( in mb ) Visibility ( mi km ) Precip ( " mm )
12:54 am 00:54 Cloudy 44 6.7 34 1.1 68 68 Calm 29.88 1012 10 16.0934 0 0
1:54 am 01:54 Cloudy 43 6.1 35 1.7 74 74 N 7 11 29.9 1013 10 16.0934 0 0
2:54 am 02:54 Cloudy 45 7.2 36 2.2 71 71 Calm 29.88 1012 10 16.0934 0 0
3:54 am 03:54 Mostly Cloudy 46 7.8 35 1.7 66 66 Calm 29.86 1011 10 16.0934 0 0
4:54 am 04:54 Mostly Clear 38 3.3 33 0.6 83 83 NNW 3 6 29.86 1011 10 16.0934 0 0
5:54 am 05:54 Mostly Cloudy 38 3.3 34 1.1 86 86 Calm 29.86 1011 10 16.0934 0 0
6:54 am 06:54 Partly Cloudy 38 3.3 33 0.6 83 83 N 5 7 29.87 1012 10 16.0934 0 0
7:54 am 07:54 Partly Cloudy 43 6.1 36 2.2 76 76 Calm 29.88 1012 10 16.0934 0 0
8:54 am 08:54 Sunny 49 9.4 37 2.8 64 64 S 5 7 29.87 1012 10 16.0934 0 0
9:54 am 09:54 Sunny 57 13.9 35 1.7 44 44 W 13 20 29.85 1011 10 16.0934 0 0
10:54 am 10:54 Sunny 61 16.1 39 3.9 44 44 WNW 14 22 29.84 1011 10 16.0934 0 0
11:54 am 11:54 Sunny 65 18.3 29 -1.7 26 26 NW 15 24 29.83 1010 10 16.0934 0 0
12:54 pm 12:54 Sunny 67 19.4 30 -1.1 25 25 NW 16 26 29.82 1010 10 16.0934 0 0
1:54 pm 13:54 Sunny 69 20.6 29 -1.7 22 22 NNW 21 33 29.8 1009 10 16.0934 0 0
2:54 pm 14:54 Partly Cloudy 71 21.7 30 -1.1 22 22 NW 14 22 29.79 1009 10 16.0934 0 0
3:54 pm 15:54 Mostly Cloudy 69 20.6 28 -2.2 22 22 WNW 16 26 29.77 1008 10 16.0934 0 0
4:54 pm 16:54 Cloudy 71 21.7 27 -2.8 19 19 NW 20 31 29.76 1008 10 16.0934 0 0
5:54 pm 17:54 Cloudy 70 21.1 28 -2.2 21 21 NW 16 26 29.78 1008 10 16.0934 0 0
6:54 pm 18:54 Cloudy 71 21.7 26 -3.3 19 19 NW 21 33 29.78 1008 10 16.0934 0 0
7:54 pm 19:54 Sunny 68 20 27 -2.8 21 21 NW 15 24 29.8 1009 10 16.0934 0 0
8:54 pm 20:54 Clear 63 17.2 30 -1.1 29 29 NW 8 13 29.83 1010 10 16.0934 0 0
9:54 pm 21:54 Mostly Clear 59 15 30 -1.1 33 33 WNW 8 13 29.86 1011 10 16.0934 0 0
10:54 pm 22:54 Mostly Cloudy 58 14.4 31 -0.6 36 36 NW 7 11 29.88 1012 10 16.0934 0 0
11:54 pm 23:54 Clear 51 10.6 32 0 48 48 NNW 6 9 29.89 1012 10 16.0934 0 0

Powered by AerisWeather